Location: Bush Observatory
(40.2653°N, 94.3194°W)
Time: 09:10:26
(UTC-05:00)

Daily predictions for brighter satellites

Satellite Brightness Start Highest point End
(mag) Time Altitude Azimuth Time Altitude Azimuth Time Altitude Azimuth
CZ-2C R/B 3.6 18:49:16 10° NNE 18:53:47 78° ESE 18:58:12 10° S
Cosmos 2058 3.0 18:51:53 10° N 18:55:59 56° E 19:00:03 10° SSE
Cosmos 1400 Rocket 2.8 18:53:48 10° N 18:57:51 82° E 19:01:48 10° S
YAOGAN 1 2.6 18:55:08 10° SSE 18:59:24 62° ENE 19:03:41 10° N
ALOS 3.1 18:58:53 10° SE 19:02:51 28° ENE 19:06:50 10° N
Cosmos 2360 Rocket 2.2 18:57:42 10° NNW 19:03:24 85° ENE 19:09:04 10° SSE
GRACE-2 4.5 19:01:40 10° SSE 19:03:58 29° E 19:06:16 10° NNE
GRACE-1 4.1 19:06:20 10° SSE 19:08:46 37° E 19:11:12 10° NNE
MOS 1 4.3 19:04:13 10° SSE 19:09:47 63° ENE 19:15:24 10° N
Cosmos 468 4.5 19:04:57 10° S 19:10:04 64° ESE 19:15:16 10° NNE
Cosmos 1821 Rocket 4.5 19:06:16 10° SSE 19:11:48 36° E 19:17:25 10° NNE
Cosmos 2322 Rocket 4.3 19:07:45 10° NW 19:12:40 32° WSW 19:17:34 10° SSW
Aureole 2 Rocket 4.0 19:10:02 10° N 19:13:10 22° ENE 19:16:23 10° ESE
SPOT 3 Rocket 3.7 19:08:22 10° SSE 19:13:25 54° ENE 19:18:29 10° N
COSMOS 2428 3.0 19:08:30 10° NNW 19:13:58 46° ENE 19:19:25 10° SE
Abrixas 1.9 19:11:53 10° SW 19:13:58 49° SE 19:15:20 18° ENE
MTI 4.0 19:10:49 10° N 19:14:02 75° WNW 19:17:13 10° SSW
Cosmos 2333 Rocket 3.2 19:11:55 10° N 19:16:45 27° NE 19:21:35 10° ESE
Cosmos 1452 Rocket 3.5 19:11:52 10° NNW 19:17:10 90° SSE 19:22:25 10° SSE
Cosmos 2219 3.5 19:13:03 10° S 19:18:30 47° ESE 19:23:59 10° NE
CZ-4 R/B 2.5 19:15:48 10° S 19:19:53 50° W 19:23:57 10° NNW
FENGYUN 3A 4.0 19:15:29 10° SE 19:20:33 44° ENE 19:25:41 10° N
MONITOR-E 4.0 19:18:40 10° SSE 19:21:44 68° ENE 19:24:48 10° N
Delta 2 Rocket 4.0 19:19:58 10° WSW 19:23:41 39° S 19:26:27 14° ESE
BREEZE-M R/B 3.8 19:22:36 10° S 19:24:27 17° SE 19:25:04 16° ESE
Cosmos 2221 2.5 19:20:25 10° S 19:24:40 63° E 19:28:59 10° NNE
Iridium 4 Rocket 3.9 19:19:53 10° SSE 19:25:16 52° E 19:30:58 10° NNE
GP-B 3.6 19:21:43 10° N 19:26:07 63° W 19:30:29 10° SSW
SKYMED 2 3.5 19:21:50 10° NNE 19:26:12 84° ESE 19:30:32 10° SSW
Cosmos 1727 Rocket 4.3 19:20:27 10° N 19:26:47 73° W 19:33:04 10° S
Cosmos 2297 Rocket 3.6 19:23:50 10° SE 19:26:57 15° E 19:27:02 15° E
Cosmos 2098 Rocket 3.6 19:23:52 10° SSE 19:28:15 49° E 19:33:48 10° NNE
Cosmos 2084 4.5 19:27:26 10° N 19:30:31 23° NE 19:31:38 20° ENE
ERS-2 3.8 19:27:34 10° S 19:31:01 38° W 19:34:31 10° NNW
Cosmos 921 Rocket 3.3 19:26:38 10° NNW 19:31:04 74° WSW 19:35:23 10° S
Cosmos 44 2.9 19:27:37 10° SSW 19:32:00 90° NW 19:36:21 10° NNE
Abrixas rocket 4.1 19:31:45 10° NW 19:34:14 19° N 19:35:41 15° NE
EO 1 Del DPAF 3.9 19:30:33 10° N 19:34:20 58° WNW 19:38:06 10° SSW
Meteor 2-10 4.5 19:31:01 10° SSE 19:35:31 34° E 19:40:07 10° NNE
BREEZE-M DEB (TANK) 4.1 19:25:30 10° W 19:37:58 53° NNW 19:41:01 19° ENE
BREEZE-M DEB (TANK) 4.1 19:34:28 10° NW 19:38:58 76° NNE 19:58:33 10° ESE
Cosmos 1726 2.1 19:36:47 10° S 19:40:23 55° E 19:44:01 10° NNE
Cosmos 2322 4.3 19:35:33 10° NNW 19:41:11 60° WSW 19:46:46 10° S
Cosmos 2123 Rocket 4.4 19:36:44 10° N 19:42:35 40° ENE 19:48:26 10° SE
Cosmos 1315 Rocket 3.7 19:41:08 10° NNW 19:45:07 54° W 19:49:09 10° S
Cosmos 1605 Rocket 4.5 19:40:50 10° SSE 19:46:14 34° E 19:51:38 10° NNE
BREEZE-M DEB (TANK) 3.6 19:48:13 10° WNW 19:49:49 19° NNW 19:50:17 18° N
Cosmos 2219 Rocket 2.2 19:45:10 10° NNW 19:50:42 56° ENE 19:55:32 13° SE
Cosmos 1048 Rocket 4.2 19:47:29 10° SSW 19:52:35 73° WNW 19:57:43 10° NNE
FREGAT/IRIS 3.8 19:56:22 28° NNE 19:56:22 28° NNE 19:58:03 10° N
APEX 4.3 19:53:00 10° SW 19:55:52 33° WNW 19:58:26 10° N
SAR-Lupe-3 4.4 19:52:22 10° NNE 19:55:57 73° ESE 19:59:31 10° S
NOAA 12 4.2 19:50:59 10° S 19:56:17 80° WSW 20:01:38 10° NNW
Cosmos 2251 Rocket 4.3 19:52:23 10° SSE 19:56:38 29° ESE 19:56:38 29° ESE
DELTA 2 R/B (1) 4.4 19:52:57 10° W 19:58:16 45° SSW 20:01:54 19° SE
Envisat 4.5 20:01:48 19° NE 20:01:48 19° NE 20:04:09 10° NNE
Cosmos 44 Rocket 4.1 20:00:13 10° SW 20:04:45 47° NW 20:09:19 10° NNE
SJ-6B 3.4 20:06:28 36° NNE 20:06:28 36° NNE 20:09:07 10° N
NOSS 0 Rocket 3.9 20:02:13 10° NNW 20:08:20 61° ENE 20:11:40 27° SE
Resurs 01 Rocket 3.6 20:11:19 16° NNE 20:11:19 16° NNE 20:12:25 10° NNE
CZ-4C R/B 2.5 20:04:07 10° SW 20:09:16 65° NW 20:15:06 10° NNE
PSLV R/B 4.1 20:06:34 10° SW 20:08:53 36° SSW 20:08:53 36° SSW
MOS 1-B Rocket 4.3 20:09:36 36° E 20:11:00 41° ENE 20:16:43 10° N
Sich 1 2.9 20:08:48 10° N 20:13:12 85° E 20:17:37 10° S
Thor Agena Rocket 3.4 20:09:58 10° NNE 20:15:05 88° WNW 20:20:08 10° SSW
H-2A R/B 2.7 20:19:07 40° S 20:20:27 84° WSW 20:24:23 10° NNW
BREEZE M DEB (TANK) 4.4 20:03:59 10° WNW 20:21:19 58° NNE 20:23:10 41° ENE
In-Cosmos 22 Rocket 4.1 20:19:11 10° N 20:24:58 79° E 20:30:28 12° SSE
Cosmos 2237 Rocket 2.2 20:20:54 10° NNW 20:26:33 60° ENE 20:27:17 55° E
BREEZE-M DEB (TANK) 4.0 20:26:12 10° WNW 20:26:59 17° NW 20:26:59 17° NW
Cosmos 1331 Rocket 3.8 20:23:05 10° NNW 20:28:20 74° ENE 20:29:11 60° SE
Atlas Centaur 2 4.2 20:27:03 10° SW 20:29:27 14° SSW 20:31:24 11° S
Gbstr 26 Del rocket 3.8 20:26:02 10° WNW 20:31:15 73° SW 20:33:16 43° SSE
Cosmos 2227 Rocket 2.0 20:27:16 10° SSW 20:32:53 71° ESE 20:34:04 54° NE
USA 267 3.4 20:32:24 47° ESE 20:32:56 48° SE 20:39:10 10° SSW
Cosmos 1666 Rocket 4.2 20:32:07 10° NNW 20:36:20 53° W 20:40:04 13° SSW
Cosmos 1300 4.0 20:34:39 10° SSW 20:38:16 39° WNW 20:41:54 10° N
SL-16 R/B 3.5 20:33:27 10° N 20:36:40 26° NNE 20:36:40 26° NNE
ALOS 4.3 20:36:12 10° SSW 20:40:12 28° W 20:44:14 10° NW
Cosmos 1633 Rocket 3.6 20:37:33 10° NNW 20:41:55 58° W 20:43:25 37° SSW
Cosmos 1980 3.6 20:45:04 10° NNW 20:50:44 82° WSW 20:51:11 74° S
Meteor 2-3 Rocket 4.0 20:45:39 10° N 20:50:10 54° NNE 20:50:10 54° NNE
CZ-3A R/B 4.2 20:35:37 10° NW 20:54:51 53° NNE 20:56:32 46° ENE
Cosmos 2333 Rocket 3.1 20:55:45 10° NW 21:01:12 46° WSW 21:03:41 29° SSW
Centaur D AC-28 4.2 21:00:01 10° SSW 21:42:08 - E 21:03:27 30° SSE
USA 234 4.3 21:08:10 31° NNE 21:08:10 31° NNE 21:13:25 10° NW
Cosmos 2297 Rocket 2.8 21:04:41 10° SSW 21:08:58 51° SW 21:08:58 51° SW
Cosmos 2219 Rocket 4.5 21:30:17 10° NW 21:34:07 19° W 21:37:22 12° SW
